Jai Tuiloma

Scout - Canterbury United
5 Nov 2028
Sonntag
Verarbeitung

Persönlichkeit

Anpassungsfähigkeit (16) Ehrgeiz (17) Kontroverse (14) Loyalität (7) Druck (1) Professionalität (6) Fairness (10) Temperament (5)

Profil

Trainerstil Demokratisch
Lizenz Kontinentale A
Entschlossenheit 2
Menschenführung 2
Motivation 6
Disziplin 3
Arbeitszufriedenheit
100%
Ermüdung
0%
Rolle Scout
Gehalt 32.7K p/W
Vertrag 14.03.2029

Leistung

Verhalten Gut
Trainingseffektivität
25%
Spielerentwicklung
20%
Verletzungsprävention
5%
Taktische Umsetzung
35%

Letzte Ereignisse

Nahm an einer Scouting-Besprechung teil jetzt
Nahm an einer Scouting-Besprechung teil 7T her
Nahm an einer Scouting-Besprechung teil 7T her
Empfahl ein Transferziel 7T her
Nahm an einer Scouting-Besprechung teil 14T her
Nahm an einer Scouting-Besprechung teil 14T her
Empfahl ein Transferziel 14T her
Empfahl ein Transferziel 21T her

Aktuell beobachtet

143
Spieler Verein Status Fähigkeit Vertrauen Beobachtet Zuletzt beobachtet Letzte Stimme
Cameron Singh WaiBOP United Aktiv 66 / 89 51% 1 31.07.2028 -
Dane Barbarouses Southern United Aktiv 62 / 75 51% 1 17.07.2028 Beobachten
Enzo González Defensores Aktiv 104 / 114 40% 3 01.06.2028 -
Callum De Vries WaiBOP United Aktiv 70 / 69 51% 1 01.06.2028 -
Juan Peinipil Madryn Aktiv 90 / 112 40% 1 01.06.2028 -
Maximiliano Luayza Koot Tristán Suárez Aktiv 96 / 121 40% 1 29.05.2028 -
Tomás O'Connor Gimnasia y Esgrima Aktiv 143 / 130 40% 1 24.05.2028 -
Juan Sebastián Herrera Deportivo La Guaira Aktiv 103 / 116 40% 4 22.05.2028 -
Patricio Moyano Defensores Aktiv 112 / 113 40% 1 22.05.2028 -
Lautaro Disanto Defensores Unidos Aktiv 116 / 116 40% 1 20.05.2028 -
Nicolás Retamar Ferro Carril Oeste Aktiv 130 / 122 40% 1 20.05.2028 -
Lawrence Wong Newcastle Jets Aktiv 112 / 112 40% 1 17.05.2028 -
Baltasar Rodríguez Estudiantes Aktiv 134 / 127 40% 3 16.05.2028 -
Tobías Leiva Estudiantes Aktiv 101 / 125 40% 2 16.05.2028 -
Santiago Longo Belgrano Aktiv 140 / 135 40% 1 15.05.2028 -
Amlani Tatu Western Sydney Wanderers Aktiv 94 / 122 40% 3 14.05.2028 -
Will Freney Perth Glory Aktiv 96 / 105 40% 3 11.05.2028 -
Matías Noble Almirante Brown Aktiv 118 / 106 40% 1 11.05.2028 -
Yeferson Rodallega Envigado Aktiv 127 / 120 40% 2 08.05.2028 -
Miguel Ceccotti Güemes Aktiv 105 / 113 40% 2 08.05.2028 -
Iñaki Larthirigoyen San Telmo Aktiv 106 / 116 40% 1 07.05.2028 -
Esteban Obregón Montevideo City Torque Aktiv 131 / 114 40% 1 04.05.2028 -
Brian Farioli Estudiantes Aktiv 100 / 113 40% 1 03.05.2028 -
Marcos Enrique Tristán Suárez Aktiv 95 / 102 40% 1 01.05.2028 -
Agustín Ojeda Chaco For Ever Aktiv 117 / 104 40% 1 29.04.2028 -
Austin Ayoubi Central Coast Mariners Aktiv 99 / 112 40% 3 28.04.2028 -
Ulises Sánchez Gimnasia y Esgrima Aktiv 111 / 118 40% 2 27.04.2028 -
Maximiliano Meléndez Chacarita Juniors Aktiv 125 / 120 40% 1 27.04.2028 -
Newton Adebayo Team Wellington Aktiv 114 / 98 40% 3 26.04.2028 -
Pedro Sanz Central Norte Aktiv 116 / 113 40% 2 24.04.2028 -
Facundo Lencioni Gimnasia y Esgrima Aktiv 106 / 121 40% 1 23.04.2028 -
Enzo Trinidad Colegiales Aktiv 102 / 116 40% 1 23.04.2028 -
Matías Viguet Maipú Aktiv 117 / 116 40% 1 22.04.2028 -
Fabian Talladira Adelaide United Aktiv 77 / 94 40% 2 21.04.2028 -
Franco Díaz Temperley Aktiv 129 / 130 40% 2 20.04.2028 -
Nathan Amanatidis Wellington Phoenix Aktiv 104 / 96 40% 1 20.04.2028 -
Enzo Hoyos Ferro Carril Oeste Aktiv 131 / 110 40% 2 19.04.2028 -
Tiago Banega Gimnasia y Tiro Aktiv 106 / 122 40% 1 18.04.2028 -
Nicolás Barros Schelotto Gimnasia La Plata Aktiv 126 / 117 40% 1 18.04.2028 -
Gianluca Pugliese Güemes Aktiv 95 / 103 40% 3 15.04.2028 -
Tadiwanashe Kuzamba Macarthur FC Aktiv 87 / 100 40% 1 15.04.2028 -
Brian Guerra Chaco For Ever Aktiv 126 / 103 40% 1 13.04.2028 -
Delfor Minervino Estudiantes Aktiv 102 / 108 40% 1 12.04.2028 -
Fin Conchie Wellington Phoenix Aktiv 107 / 109 40% 1 11.04.2028 -
Nicolas Sport Recife Aktiv 112 / 120 40% 1 02.04.2028 -
Leandro Allende Colón Aktiv 102 / 121 40% 1 29.03.2028 -
Juan Velázquez Belgrano Aktiv 132 / 117 40% 1 24.03.2028 -
Chris Stamatelopoulos WaiBOP United Aktiv 110 / 103 40% 1 23.03.2028 -
Johan Campaña Patriotas Aktiv 112 / 103 40% 1 22.03.2028 -
Arian Pardo Adelaide United Aktiv 89 / 95 40% 1 19.03.2028 -
Sabo Gambo Team Wellington Aktiv 121 / 113 40% 1 11.03.2028 -
Joey Garuccio Melbourne Victory Aktiv 89 / 99 40% 1 10.03.2028 -
Bruno Leyes Godoy Cruz Aktiv 130 / 118 40% 1 09.03.2028 -
Christian Oliva Santos Aktiv 106 / 129 40% 1 06.03.2028 -
Prince Ukachukwu Irtysh Aktiv 87 / 102 40% 4 03.03.2028 -
David Yoo Auckland City Aktiv 97 / 109 40% 1 03.03.2028 -
Jesse Akila Taraz Aktiv 97 / 110 40% 5 01.03.2028 -
Doniyor Abdumannopov Andijon Aktiv 103 / 115 40% 1 01.03.2028 -
Javohir Sidiqov Kokand 1912 Aktiv 102 / 107 40% 1 28.02.2028 -
Behruz Soatov Rewa Aktiv 71 / 68 40% 1 26.02.2028 -
Oleksiy Shchebetun Qizilqum Aktiv 88 / 87 40% 1 24.02.2028 -
Ratinho Neftchi Aktiv 96 / 101 40% 2 23.02.2028 -
Javohir Ro'ziyev Bukhara Aktiv 76 / 102 40% 1 23.02.2028 -
Humoyunmirzo Iminov Andijon Aktiv 96 / 111 40% 1 22.02.2028 -
Callan Elliot Auckland FC Aktiv 104 / 109 40% 1 21.02.2028 -
Appolinaire Bougma Auckland City Aktiv 86 / 109 40% 1 20.02.2028 -
Shahzod Rahmatullayev Qizilqum Aktiv 106 / 110 40% 1 19.02.2028 -
Islombek Baratov Mashal Aktiv 102 / 96 40% 1 18.02.2028 -
Umar Adhamzoda Navbahor Aktiv 92 / 108 40% 2 17.02.2028 -
Doniyor Narzullayev Shortan Aktiv 73 / 90 40% 1 17.02.2028 -
Kayne Razmovski Rewa Aktiv 73 / 69 40% 1 16.02.2028 -
Temur Mamasiddiqov Bukhara Aktiv 83 / 101 40% 1 14.02.2028 -
Fabby Clark Metallurg Aktiv 92 / 86 40% 1 13.02.2028 -
Joel Anasmo Auckland City Aktiv 109 / 108 40% 1 13.02.2028 -
Aleksandar Boljević Sogdiana Aktiv 135 / 110 40% 1 08.02.2028 -
Ricardo Williams Irtysh Aktiv 88 / 97 40% 1 07.02.2028 -
Joe Payne Southern United Aktiv 99 / 99 66% 2 / 2m 26.01.2028 Befürworten
Deklan Wood Southern United Aktiv 80 / 85 30% 1 / 1m 26.01.2028 -
Santiago Rodríguez Gimnasia y Esgrima Aktiv 110 / 117 40% 1 10.01.2028 -
Dylan Cabral Arsenal Aktiv 98 / 100 40% 1 10.01.2028 -
Francis Cacace Waitakere United Aktiv 71 / 65 51% 1 01.01.2028 -
Facundo Krüger Temperley Aktiv 129 / 125 40% 3 31.12.2027 -
Santiago Sala Güemes Aktiv 108 / 121 40% 2 31.12.2027 -
Sávio PSM Aktiv 92 / 98 40% 1 29.12.2027 -
Lucas Pedraza Defensores Unidos Aktiv 94 / 96 40% 2 28.12.2027 -
Octavio Bianchi Gimnasia y Esgrima Aktiv 98 / 101 40% 1 28.12.2027 -
Augusto Berrondo Tristán Suárez Aktiv 115 / 107 40% 1 27.12.2027 -
Ljupce Doriev Sogdiana Aktiv 103 / 111 40% 2 26.12.2027 -
Camilo Machado Madryn Aktiv 126 / 105 40% 3 26.12.2027 -
Agustín Lavezzi Quilmes Aktiv 99 / 114 40% 2 24.12.2027 -
Carlos Ramírez Zulia Aktiv 94 / 91 40% 1 24.12.2027 -
Lorenzo Barrera Agropecuario Argentino Aktiv 83 / 96 40% 1 23.12.2027 -
Milan Ristovski Bhayangkara Presisi Aktiv 108 / 110 40% 1 23.12.2027 -
Juan David Rueda Alianza Petrolera Aktiv 119 / 100 40% 1 22.12.2027 -
Lucas Cano All Boys Aktiv 98 / 107 40% 2 20.12.2027 -
Kianz Froese Semen Padang Aktiv 119 / 99 40% 3 17.12.2027 -
Lautaro Gordillo Colegiales Aktiv 131 / 110 40% 3 17.12.2027 -
Sergio Castel Persik Aktiv 122 / 118 40% 3 16.12.2027 -
Danilo Santacruz Madura United Aktiv 95 / 107 40% 1 15.12.2027 -
Abu Kamara Persis Aktiv 81 / 106 40% 2 14.12.2027 -
Luca Franco Arsenal Aktiv 125 / 116 40% 3 10.12.2027 -
Sergio González Racing Verhandlung 108 / 114 40% 1 10.12.2027 -
Riquelme Madura United Aktiv 88 / 95 40% 1 09.12.2027 -
Tobías Cervera Gimnasia y Esgrima Aktiv 102 / 125 40% 1 08.12.2027 -
Dejan Tumbas Persis Aktiv 108 / 92 40% 2 07.12.2027 -
Jort van der Sande Bali United Aktiv 90 / 113 40% 3 05.12.2027 -
Júnior Brandão Madura United Aktiv 88 / 102 40% 1 05.12.2027 -
Favio Cabral Mitre Aktiv 112 / 126 40% 1 03.12.2027 -
Lisandro Cabrera Maipú Aktiv 99 / 120 40% 2 02.12.2027 -
Sebastián Cocimano Nueva Chicago Aktiv 118 / 102 40% 1 29.11.2027 -
Germán Cervera Alvarado Aktiv 117 / 101 40% 1 21.11.2027 -
José Barreto Quilmes Aktiv 130 / 115 40% 1 15.11.2027 -
Franco Ayunta Temperley Aktiv 102 / 116 40% 1 13.11.2027 -
Alexis Gómez Persijap Aktiv 111 / 109 40% 1 12.11.2027 -
Juan Rodríguez Cerro Largo Aktiv 105 / 108 40% 1 09.11.2027 -
Sheriddin Boboev PSM Aktiv 115 / 105 40% 1 09.11.2027 -
Renzo Reynaga Patronato Aktiv 94 / 101 40% 2 08.11.2027 -
Agustín Gallo Tristán Suárez Aktiv 125 / 118 40% 1 07.11.2027 -
Nermin Haljeta PSIM Aktiv 100 / 109 40% 2 06.11.2027 -
Santiago Guzmán Wanderers Aktiv 103 / 104 40% 3 05.11.2027 -
Matías Samaniego Talleres Aktiv 92 / 98 40% 3 04.11.2027 -
Suleiman Abdullahi Atyrau Aktiv 88 / 95 40% 1 02.11.2027 -
Nicolás Heiz Maipú Aktiv 96 / 103 40% 1 04.10.2027 -
Rafael Andrade Rewa Aktiv 78 / 73 40% 3 26.09.2027 -
Kazaki Nakagawa Semen Padang Aktiv 89 / 81 40% 1 26.09.2027 -
Andrés Dieppa Bogota Aktiv 105 / 101 40% 1 24.09.2027 -
Setareki Hughes Rewa Aktiv 59 / 68 40% 1 23.09.2027 -
Asadbek Jo'raboyev Bukhara Aktiv 82 / 89 40% 1 22.09.2027 -
Imeda Ashortia Andijon Aktiv 108 / 105 40% 1 21.09.2027 -
Moussa Sidibé Bhayangkara Presisi Aktiv 94 / 96 40% 1 18.09.2027 -
Omar Bautista Gerez Central Córdoba SdE Aktiv 106 / 96 40% 1 17.09.2027 -
Luka Čumić PSM Aktiv 102 / 108 40% 1 17.09.2027 -
Anton Fase PSIM Aktiv 96 / 102 40% 2 15.09.2027 -
Owen Falconis Cerrito Aktiv 82 / 102 40% 1 12.09.2027 -
Valdeci Arema Aktiv 104 / 107 40% 1 10.09.2027 -
Sairusi Nalaubu Lautoka Aktiv 94 / 84 40% 1 08.09.2027 -
Muhammed Kabiru Ordabasy Aktiv 98 / 88 40% 1 20.07.2027 -
Diego Campos Bali United Aktiv 92 / 111 40% 1 15.06.2027 -
Timur Masharipov Obod Aktiv 79 / 99 40% 1 15.06.2027 -
Deklan Lockyer WaiBOP United Aktiv 48 / 70 48% 1 01.01.2027 -
Thiago Perugini San Lorenzo Aktiv 115 / 101 40% 1 31.12.2026 -
Noah Wood WaiBOP United Aktiv 58 / 64 40% 1 31.12.2026 -
Jake Waine Aktiv 62 / 63 48% 1 10.08.2026 -